Overview Statistics Trail Chart Weather Telemetry Raw packets
 

This is the latest recevied weather packets stored in our database for station/object KB0BDN-13. If no packets are shown the sender has not sent any weather packets the latest 10 day(s).

<< 14 15 16 17 18 19 20 >>
Time Temp. Humidity Pressure Rain* Wind** Luminosity Snow
1788507095 13.89° C 98% 1006.8 hPa 1.27 mm - - -
1788506954 13.89° C 98% 1006.9 hPa 2.03 mm - - -
1788506195 13.89° C 98% 1006.9 hPa 1.78 mm - - -
1788506054 13.89° C 98% 1006.8 hPa 1.78 mm - - -
1788505295 13.89° C 98% 1006.8 hPa 1.78 mm - - -
1788505154 13.89° C 98% 1007 hPa 1.78 mm - - -
1788504395 13.89° C 98% 1007 hPa 1.78 mm - - -
1788504254 13.89° C 98% 1007 hPa 1.78 mm - - -
1788503495 13.89° C 98% 1007 hPa 0.76 mm - - -
1788503354 13.89° C 98% 1006.7 hPa 0.51 mm - - -
1788502595 13.89° C 97% 1006.7 hPa 0.25 mm - - -
1788502454 13.89° C 97% 1007.2 hPa 0.25 mm - - -
1788501695 13.89° C 97% 1007.2 hPa 0 mm - - -
1788500795 13.89° C 98% 1007.2 hPa 0 mm - - -
1788499895 14.44° C 97% 1007.5 hPa 0 mm - - -
1788499753 14.44° C 98% 1007.9 hPa 0.51 mm - - -
1788498995 14.44° C 98% 1007.9 hPa 0.51 mm - - -
1788498853 14.44° C 98% 1007.4 hPa 0.51 mm - - -
1788498095 14.44° C 97% 1007.4 hPa 0.51 mm - - -
1788497195 14.44° C 97% 1007.7 hPa 3.3 mm - - -
1788497053 14.44° C 97% 1007.4 hPa 3.3 mm - - -
1788496295 14.44° C 97% 1007.4 hPa 3.3 mm - - -
1788496153 15° C 97% 1007.1 hPa 6.86 mm - - -
1788495395 15° C 97% 1007.1 hPa 6.86 mm - - -
1788494495 15° C 96% 1007.6 hPa 6.35 mm - - -

* Rain latest hour (hover to see other rain measurements)
** Current wind speed in m/s (hover to see current wind gust speed)